Flag for Canada Weather past 2 weeks in Creighton, Saskatchewan, Canada

Now
34 °F

Overcast.


Feels Like: 25 °F
Forecast: 23 / 40 °F
Wind: 12 mph from Northwest

Location: The Pas

Current Time: Mar 31, 2015 at 2:11:09 AM

Latest Report: Mar 31, 2015 at 1:00 AM


Visibility: 15 mi

Pressure: 29.89 "Hg

Humidity: 87%

Dew point: 30 °F

Location of CreightonLocation

Historic Weather in Creighton — Graph

°F

Creighton temperature yesterday

Maximum temperature yesterday: 46 °F (at 6:00 PM)
Minimum temperature yesterday: 28 °F (at 1:00 AM)
Average temperature yesterday: 36 °F

Past Weeks' High & Low Weather Summary

 TemperatureHumidityPressure
High48 °F (Mar 29, 4:00 PM)100% (Mar 19, 8:00 AM)30.50 "Hg (Mar 19, 8:00 AM)
Low-4 °F (Mar 20, 8:00 AM)36% (Mar 17, 4:00 PM)29.47 "Hg (Mar 28, 5:00 PM)
Average23 °F70%30.12 "Hg
* Reported Mar 16 1:00 AM — Mar 31 1:00 AM, Creighton, Weather by CustomWeather, © 2015

Note: Actual official high and low records may vary slightly from our data, if they occured in-between our weather recording intervals... More about our weather records

Advertising

Creighton weather history for previous 24 hours

 ConditionsComfort  
Time TempWeatherWind HumidityBarometerVisibility
1:00 AM
Tue, Mar 31
34 °FOvercast.12 mph87%29.89 "Hg15 mi
12:00 AM36 °FPassing clouds.12 mph81%29.86 "Hg15 mi
11:00 PM
Mon, Mar 30
36 °FClear.8 mph81%29.85 "Hg15 mi
10:00 PM39 °FClear.14 mph70%29.83 "Hg15 mi
9:00 PM41 °FScattered clouds.10 mph66%29.80 "Hg15 mi
8:00 PM41 °FPartly sunny.No wind87%29.79 "Hg15 mi
7:00 PM45 °FBroken clouds.5 mph81%29.77 "Hg15 mi
6:00 PM46 °FBroken clouds.3 mph76%29.76 "Hg15 mi
5:00 PM43 °FBroken clouds.No wind81%29.77 "Hg15 mi
4:00 PM41 °FBroken clouds.2 mph81%29.77 "Hg15 mi
3:00 PM37 °FPartly sunny.5 mph87%29.78 "Hg15 mi
2:00 PM36 °FLight rain. Overcast.2 mph100%29.76 "Hg15 mi
1:00 PM34 °FLight rain. Overcast.3 mph100%29.75 "Hg10 mi
12:00 PM36 °FLight rain. Overcast.2 mph93%29.74 "Hg10 mi
11:00 AM34 °FLight rain. Overcast.6 mph93%29.74 "Hg15 mi
10:00 AM34 °FLight rain. Overcast.3 mph93%29.74 "Hg12 mi
9:00 AM32 °FLight rain. Overcast.7 mph93%29.74 "Hg13 mi
8:00 AM32 °FLight freezing rain. Overcast.9 mph93%29.75 "Hg12 mi
7:00 AM32 °FLight freezing rain. Overcast.8 mph87%29.75 "Hg12 mi
6:00 AM32 °FLight freezing rain. Overcast.9 mph80%29.75 "Hg15 mi
5:00 AM32 °FOvercast.8 mph80%29.76 "Hg15 mi
4:00 AM32 °FOvercast.9 mph80%29.77 "Hg15 mi
3:00 AM30 °FOvercast.8 mph80%29.78 "Hg15 mi
2:00 AM30 °FOvercast.5 mph75%29.79 "Hg15 mi
Weather by CustomWeather, © 2015

See weather overviewHow to use our weather pages